This is the latest recevied weather packets stored in our database for station/object SQ7IQO. If no packets are shown the sender has not sent any weather packets the latest 10 day(s).
| Time | Temp. | Humidity | Pressure | Rain* | Wind** | Luminosity | Snow |
|---|---|---|---|---|---|---|---|
| 1787916340 | 25° C | 42% | 1018.8 hPa | 0 mm | 0.45 m/s, ° | - | - |
| 1787916280 | 25° C | 41% | 1018.8 hPa | 0 mm | 0.45 m/s, ° | - | - |
| 1787916220 | 25° C | 40% | 1018.9 hPa | 0 mm | 0 m/s | - | - |
| 1787916160 | 24.44° C | 40% | 1019 hPa | 0 mm | 0.89 m/s, ° | - | - |
| 1787916100 | 25° C | 40% | 1019 hPa | 0 mm | 1.34 m/s, ° | - | - |
| 1787916040 | 25° C | 41% | 1019.1 hPa | 0 mm | 0.89 m/s, ° | - | - |
| 1787915979 | 25° C | 41% | 1019.2 hPa | 0 mm | 0.89 m/s, ° | - | - |
| 1787915920 | 25° C | 41% | 1019.3 hPa | 0 mm | 0.89 m/s, ° | - | - |
| 1787915860 | 25° C | 41% | 1019.3 hPa | 0 mm | 0.45 m/s, ° | - | - |
| 1787915800 | 24.44° C | 42% | 1019.2 hPa | 0 mm | 0.45 m/s, ° | - | - |
| 1787915740 | 24.44° C | 41% | 1019.3 hPa | 0 mm | 0.89 m/s, ° | - | - |
| 1787915680 | 25° C | 40% | 1019.3 hPa | 0 mm | 0.89 m/s, ° | - | - |
| 1787915620 | 25° C | 40% | 1019.3 hPa | 0 mm | 0.89 m/s, ° | - | - |
| 1787915560 | 25° C | 42% | 1019.3 hPa | 0 mm | 0.89 m/s, ° | - | - |
| 1787915499 | 25° C | 40% | 1019.3 hPa | 0 mm | 0.45 m/s, ° | - | - |
| 1787915439 | 25° C | 42% | 1019.3 hPa | 0 mm | 1.34 m/s, ° | - | - |
| 1787915379 | 25° C | 42% | 1019.2 hPa | 0 mm | 0.89 m/s, ° | - | - |
| 1787915319 | 25° C | 40% | 1019.3 hPa | 0 mm | 0 m/s | - | - |
| 1787915259 | 25° C | 40% | 1019.4 hPa | 0 mm | 0 m/s | - | - |
| 1787915199 | 25° C | 40% | 1019.5 hPa | 0 mm | 0.89 m/s, ° | - | - |
| 1787915139 | 25° C | 42% | 1019.5 hPa | 0 mm | 0.89 m/s, ° | - | - |
| 1787915079 | 24.44° C | 42% | 1019.6 hPa | 0 mm | 0.89 m/s, ° | - | - |
| 1787915019 | 24.44° C | 41% | 1019.5 hPa | 0 mm | 0.45 m/s, ° | - | - |
| 1787914959 | 24.44° C | 40% | 1019.7 hPa | 0 mm | 0.89 m/s, ° | - | - |
| 1787914899 | 24.44° C | 40% | 1019.7 hPa | 0 mm | 0.89 m/s, ° | - | - |
* Rain latest hour (hover to see other rain measurements)
** Current wind speed in m/s (hover to see current wind gust speed)